CYGFM01 (41887 NORAD) Tracking and Keplerian Element Data

This shows tracking and keplerian element data for the satellite.

Feedback or suggestion? Click here.




ElementValue
Catalog41887
NameCYGFM01
Epoch Orbit39227
Epoch Day12.98556722
Epoch Year2024
RAAN210.7516
Inclination34.9483
Eccentricity0.001284
Argument of Perigee218.035
Mean Anonmoly141.9458
Mean Motion15.23288415
Decay Rate9.771E-05
L11 41887U 16078D 24012.98556722 .00009771 00000+0 40216-3 0 9992
L22 41887 34.9483 210.7516 0012840 218.0350 141.9458 15.23288415392271



Live tracking and technical data element details for CYGFM01 (NORAD 41887). CYGFM01 can be tracked NOW for your location showing map with azimuth and elevation plus other details from your city location.







IsCatalogInMostPopularTable: catalog: 41887, numindb: 768
Update: records affected: 1



GetName: 41887 CYGFM01

Hit Count: updated at: Fri, 19 Apr 2024 13:11:19 GMT